Weather History for ENEK - October, 2012

Change the Weather History Date:

Thursday, October 25, 2012

  Actual Average Record
Temperature  
Mean Temperature 46 °F -  
Max Temperature 50 °F 52 °F 57 °F (2005)
Min Temperature 41 °F 47 °F 41 °F (2012)
Degree Days  
Heating Degree Days 20    
Moisture  
Dew Point 36 °F    
Average Humidity 70    
Maximum Humidity 94    
Minimum Humidity 41    
Precipitation  
Precipitation 0.00 in - - ()
Sea Level Pressure  
Sea Level Pressure 30.03 in    
Wind  
Wind Speed 26 mph ()    
Max Wind Speed 41 mph    
Max Gust Speed 51 mph    
Visibility 6.6 miles    
Events Rain    
Averages and records for this station are not official NWS values.
T = Trace of Precipitation, MM = Missing Value Source: Averaged Metar Reports

Daily Weather History Graph

Daily Weather History Graph

Search for Another Location

Airport or City:

Trip Planner

Search our weather history database for the weather conditions in past years. The results will help you decide how hot, cold, wet, or windy it might be!

Date:

Astronomy

Oct. 25, 2012 Rise Set
Actual Time 8:41 AM CEST 6:19 PM CEST
Civil Twilight 8:01 AM CEST 6:59 PM CEST
Nautical Twilight 7:17 AM CEST 7:43 PM CEST
Astronomical Twilight 6:34 AM CEST 8:26 PM CEST
Moon 4:35 PM CEST (10/25) 3:38 AM CEST (10/25)
Length of Visible Light 10h 57m
Length of Day
9h 38m
Waxing Gibbous, 82% of the Moon is Illuminated
Oct 25
Waxing Gibbous
Oct 29
Full
Nov 7
Last Quarter
Nov 13
New
Nov 20
First Quarter

Hourly Weather History & Observations

Time (CEST) Temp. Windchill Dew Point Humidity Pressure Visibility Wind Dir Wind Speed Gust Speed Precip Events Conditions
12:20 AM 50.0 °F - 48.2 °F 94% 30.09 in 6.2 mi North 21.9 mph - N/A   Mostly Cloudy
12:50 AM 46.4 °F 38.3 °F 44.6 °F 93% 30.09 in 6.2 mi North 23.0 mph - N/A   Mostly Cloudy
1:50 AM 48.2 °F - 41.0 °F 76% 30.09 in 6.2 mi NNW 21.9 mph - N/A   Mostly Cloudy
2:00 AM 48 °F - 40 °F 66% 30.12 in 12 mi NNW 17.9 mph - -   Partly Cloudy
2:20 AM 48.2 °F - 41.0 °F 76% 30.09 in 6.2 mi NNW 24.2 mph - N/A   Scattered Clouds
2:50 AM 48.2 °F - 41.0 °F 76% 30.09 in 6.2 mi NNW 26.5 mph - N/A   Scattered Clouds
3:20 AM 46.4 °F 37.5 °F 41.0 °F 81% 30.09 in 6.2 mi NNW 27.6 mph - N/A   Mostly Cloudy
3:50 AM 46.4 °F 37.7 °F 39.2 °F 76% 30.06 in 6.2 mi NNW 26.5 mph - N/A   Mostly Cloudy
4:20 AM 46.4 °F 37.7 °F 39.2 °F 76% 30.06 in 6.2 mi NNW 26.5 mph - N/A   Mostly Cloudy
4:50 AM 46.4 °F 37.2 °F 41.0 °F 81% 30.06 in 6.2 mi NNW 29.9 mph - N/A   Mostly Cloudy
5:50 AM 46.4 °F 37.9 °F 39.2 °F 76% 30.04 in 6.2 mi NNW 25.3 mph - N/A   Mostly Cloudy
6:20 AM 46.4 °F 37.2 °F 37.4 °F 71% 30.04 in 6.2 mi NNW 29.9 mph - N/A Rain Light Rain
6:50 AM 44.6 °F 35.1 °F 39.2 °F 81% 30.04 in 6.2 mi NNW 27.6 mph - N/A Rain Light Rain
7:50 AM 46.4 °F 37.0 °F 37.4 °F 71% 30.01 in 6.2 mi NNW 31.1 mph - N/A   Mostly Cloudy
8:00 AM 46 °F - 39 °F 67% 30.03 in 31 mi NNW 22.4 mph - - Rain Light Rain
8:20 AM 44.6 °F 35.1 °F 39.2 °F 81% 30.01 in 6.2 mi NW 27.6 mph - N/A   Mostly Cloudy
8:50 AM 44.6 °F 34.2 °F 37.4 °F 76% 30.01 in 6.2 mi NNW 33.4 mph - N/A   Mostly Cloudy
9:20 AM 44.6 °F 33.9 °F 37.4 °F 76% 30.01 in 6.2 mi NNW 35.7 mph - N/A Rain Light Rain Showers
9:50 AM 44.6 °F 34.7 °F 37.4 °F 76% 30.01 in 6.2 mi NNW 29.9 mph - N/A   Mostly Cloudy
10:20 AM 44.6 °F 34.1 °F 37.4 °F 76% 30.01 in 6.2 mi NNW 34.5 mph - N/A   Mostly Cloudy
10:50 AM 44.6 °F 34.7 °F 37.4 °F 76% 30.01 in 6.2 mi NNW 29.9 mph - N/A   Mostly Cloudy
11:20 AM 46.4 °F 37.0 °F 35.6 °F 66% 30.01 in 6.2 mi NNW 31.1 mph - N/A   Mostly Cloudy
11:50 AM 46.4 °F 37.7 °F 37.4 °F 71% 30.01 in 6.2 mi NNW 26.5 mph - N/A   Mostly Cloudy
12:20 PM 46.4 °F 37.2 °F 35.6 °F 66% 30.01 in 6.2 mi NNW 29.9 mph - N/A   Scattered Clouds
12:50 PM 46.4 °F 37.2 °F 35.6 °F 66% 30.01 in 6.2 mi NNW 29.9 mph - N/A   Partly Cloudy
1:20 PM 46.4 °F 37.4 °F 35.6 °F 66% 30.01 in 6.2 mi NW 28.8 mph - N/A   Scattered Clouds
1:50 PM 46.4 °F 37.4 °F 35.6 °F 66% 29.98 in 6.2 mi NW 28.8 mph - N/A   Scattered Clouds
2:00 PM 47 °F - 37 °F 57% 30.00 in 12 mi NW 24.6 mph - -   Partly Cloudy
2:20 PM 46.4 °F 37.0 °F 37.4 °F 71% 29.98 in 6.2 mi NW 31.1 mph - N/A   Scattered Clouds
2:50 PM 46.4 °F 36.7 °F 37.4 °F 71% 29.95 in 6.2 mi NW 33.4 mph - N/A   Scattered Clouds
3:20 PM 46.4 °F 36.4 °F 39.2 °F 76% 29.95 in 6.2 mi NW 35.7 mph - N/A Rain Rain Showers
3:50 PM 44.6 °F 33.3 °F 41.0 °F 87% 29.95 in 6.2 mi NNW 40.3 mph - N/A   Mostly Cloudy
4:20 PM 44.6 °F 34.1 °F 37.4 °F 76% 29.98 in 6.2 mi North 34.5 mph - N/A   Mostly Cloudy
4:50 PM 44.6 °F 33.8 °F 37.4 °F 76% 29.98 in 6.2 mi North 36.8 mph 48.3 mph N/A   Mostly Cloudy
5:20 PM 44.6 °F 33.2 °F 33.8 °F 66% 29.98 in 6.2 mi North 41.4 mph - N/A   Mostly Cloudy
5:50 PM 44.6 °F 33.5 °F 33.8 °F 66% 29.98 in - North 39.1 mph 50.6 mph N/A Rain Light Rain Showers
6:50 PM 42.8 °F 31.0 °F 33.8 °F 70% 30.01 in 6.2 mi North 39.1 mph - N/A   Scattered Clouds
7:20 PM 41.0 °F 28.2 °F 30.2 °F 65% 30.04 in 6.2 mi North 41.4 mph - N/A   Scattered Clouds
7:50 PM 42.8 °F 31.0 °F 32.0 °F 66% 30.04 in 6.2 mi North 39.1 mph - N/A   Scattered Clouds
8:10 PM 43 °F - 27 °F 41% 30.05 in 12 mi North 31.3 mph - - Rain Light Rain Showers
8:20 PM 42.8 °F 30.7 °F 24.8 °F 49% 30.04 in 6.2 mi North 41.4 mph - N/A   Scattered Clouds
8:50 PM 41.0 °F 28.8 °F 28.4 °F 61% 30.04 in 6.2 mi North 36.8 mph - N/A   Scattered Clouds
9:20 PM 41.0 °F 29.0 °F 30.2 °F 65% 30.06 in 6.2 mi North 35.7 mph - N/A   Scattered Clouds
9:50 PM 41.0 °F 29.1 °F 28.4 °F 61% 30.06 in 6.2 mi North 34.5 mph - N/A   Scattered Clouds
10:20 PM 41.0 °F 29.1 °F 23.0 °F 49% 30.09 in 6.2 mi North 34.5 mph - N/A   Scattered Clouds
10:50 PM 41.0 °F 29.5 °F 28.4 °F 61% 30.09 in 6.2 mi North 32.2 mph - N/A   Scattered Clouds
11:20 PM 41.0 °F 29.7 °F 28.4 °F 61% 30.09 in 6.2 mi North 31.1 mph - N/A   Partly Cloudy
11:50 PM 41.0 °F 30.2 °F 26.6 °F 57% 30.09 in 6.2 mi North 27.6 mph - N/A   Partly Cloudy